Flag for United Kingdom Weather past 2 weeks in Chichester, England, United Kingdom

Now
40 °F

Chilly.


Feels Like: 35 °F
Forecast: 36 / 50 °F
Wind: 7 mph from East

Location: Thorney Island

Current Time: Dec 26, 2014 at 1:47:28 PM

Latest Report: Dec 26, 2014 at 1:00 PM


Visibility: 11 mi

Pressure: 30.30 "Hg

Humidity: 93%

Dew point: 38 °F

Location of ChichesterLocation

Historic Weather in Chichester — Graph

°F

Chichester temperature yesterday

Maximum temperature yesterday: 48 °F (at 1:00 PM)
Minimum temperature yesterday: 36 °F (at 11:00 PM)
Average temperature yesterday: 42 °F

Past Weeks' High & Low Weather Summary

 TemperatureHumidityPressure
High55 °F (Dec 17, 1:00 PM)100% (Dec 15, 11:00 PM)30.52 "Hg (Dec 15, 11:00 PM)
Low26 °F (Dec 14, 2:00 AM)57% (Dec 24, 3:00 PM)29.32 "Hg (Dec 12, 6:00 AM)
Average46 °F88%30.04 "Hg
* Reported Dec 11 12:00 Noon — Dec 26 12:00 Noon, Chichester, Weather by CustomWeather, © 2014

Note: Actual official high and low records may vary slightly from our data, if they occured in-between our weather recording intervals... More about our weather records

Advertising

Chichester weather history for previous 24 hours

 ConditionsComfort  
Time TempWeatherWind HumidityBarometerVisibility
12:00 PM
Dec 26
38 °FChilly.3 mph93%30.37 "Hg11 mi
11:00 AM35 °FChilly.2 mph98%30.40 "Hg9 mi
10:00 AM32 °FChilly.3 mph97%30.42 "Hg9 mi
9:00 AM31 °FChilly.2 mph96%30.44 "Hg12 mi
8:00 AM31 °FChilly.2 mph96%30.45 "Hg9 mi
7:00 AM31 °FChilly.2 mph96%30.46 "Hg7 mi
6:00 AM33 °FChilly.No wind96%30.46 "Hg9 mi
5:00 AM33 °FChilly.3 mph95%30.47 "Hg12 mi
4:00 AM34 °FChilly.5 mph96%30.49 "Hg12 mi
3:00 AM31 °FChilly.1 mph96%30.50 "Hg7 mi
2:00 AM34 °FChilly.6 mph95%30.49 "Hg12 mi
1:00 AM34 °FChilly.6 mph92%30.50 "Hg13 mi
12:00 AM35 °FChilly.5 mph92%30.52 "Hg12 mi
11:00 PM
Dec 25
36 °FChilly.7 mph92%30.51 "Hg9 mi
10:00 PM36 °FChilly.3 mph93%30.51 "Hg7 mi
9:00 PM39 °FChilly.5 mph91%30.50 "Hg11 mi
8:00 PM38 °FChilly.6 mph88%30.49 "Hg12 mi
6:00 PM40 °FChilly.3 mph81%30.48 "Hg18 mi
5:00 PM42 °FQuite cool.3 mph77%30.47 "Hg25 mi
4:00 PM45 °FQuite cool.7 mph71%30.45 "Hg22 mi
3:00 PM47 °FCool.9 mph66%30.44 "Hg25 mi
2:00 PM47 °FCool.9 mph66%30.43 "Hg19 mi
1:00 PM48 °FCool.10 mph67%30.43 "Hg25 mi
Weather by CustomWeather, © 2014

See weather overviewHow to use our weather pages